FENGYUN 1C DEB, 30048

Orbit data source: Space-Track

FENGYUN 1C DEB, 30048 is space debris in SSO originally from a launch on Mon, 10 May 1999 UTC launched from the Taiyaun Space Center, China (TSC). Fengyun 1C debris stems from the Chinese weather satellite Fengyun-1C, which was intentionally destroyed by a Chinese anti-satellite missile in 2007. This event dramatically increased the amount of space debris, with thousands of trackable fragments posing hazards to satellites and human spaceflight. The Fengyun 1C debris cloud has become a focal point in discussions about space sustainability and the need for international regulations to prevent the creation of new debris.

Loading next visibility...
Identifier
30048, 1999-025NZ
Orbit
SSO
Country
Flag of CNCN / PRC
Related business
Manufacturer
Unknown
Mission
Spacecraft
Bus & Motor
Unknown
Mass
Unknown
Launch date (UTC)
1999-05-10 (27 years ago)
Launch vehicle
Unknown
Launch site
Taiyaun Space Center, China (TSC)
Object type
Payload
Rocket body
Debris
Shape & HBR
Unknown shape, 0.1 m
Radar Cross Section
Medium (>0.1 m² and <1 m²)

Expand to show TLE details & history
Last TLE update: 13 hours ago

TLE from 13 hours ago
0 FENGYUN 1C DEB
1 30048U 99025NZ  26254.09362448  .00000159  00000-0  16817-3 0  9996
2 30048  98.6356 101.8906 0185880 229.1224 287.8387 13.80036419988824
Epoch: 2026-09-11T02:14Z
TLE epoch observation values (Epoch: 2026-09-11T02:14:49.155Z)
Latitude
24.805°
Longitude
-97.93231°
Altitude
927.22 km
Speed
7.41 km/s
True Right ascension
19h 03m 34s
True Declination
24° 40' 38"
Sunlit
Object was in daylight at epoch
Visualization orbit readout
Latitude
Unknown
Longitude
Unknown
Altitude
Unknown
Speed
Unknown
Apparent Right ascension
Unknown
Apparent Declination
Unknown
Sunlit
N/A
Visualization observer readout
Local Sidereal Time
07:33:49
Azimuth
Unknown
Elevation
Unknown
Doppler factor
Unknown
Orbital elements
Apogee altitude
1,097.384 km
Perigee altitude
824.546 km
Semi-major axis
7,339.102 km
Eccentricity
0.01859
Inclination
98.6356°
RAAN
101.8906°
Arg. of periapsis
229.1224°
True anomaly
285.79698°
Mean anomaly
287.8387°
Eccentric anomaly
286.81924°
Mean motion
3.45206 °/min
Orbital period
104.29 mins
BSTAR
0.00016817
Loading maneuver chart data...
Computing Atmospheric mass density...

Documentation

Showing up to 5 results
|